Location: Marsån
(66.4167°N, 22.2833°E)
Time: 12:02:49
(UTC+00:00)

SJ 16-02 - Pass Details

Date: 24 February 2024
Orbit: 595 x 607 km, 75.0° (Epoch: 16 April)

Event Time Altitude Azimuth Distance (km) Brightness Sun altitude
Rises 21:59:00 0° 275° (W) 2,873 5.0 -32.5°
Reaches altitude 10° 22:01:29 10° 287° (WNW) 1,971 4.2 -32.5°
Enters shadow 22:01:59 13° 291° (WNW) 1,802 4.0 -32.5°
Exits shadow 22:08:20 15° 42° (NE) 1,697 3.9 -32.6°
Drops below altitude 10° 22:09:12 10° 49° (NE) 1,977 4.2 -32.7°
Sets 22:11:42 0° 61° (ENE) 2,883 5.0 -32.7°
